User: anonymous   Login
Location: Walnut Point State Park
(39.6958°N, 88.0345°W)
Time: 10:14:38
(UTC-06:00)
Language:

ATLAS 3B R/B - Orbit

View from above orbital plane
View from above orbital plane
View from above satellite
View from above satellite

Ground track
Ground track

The orbit data is extracted from the following two-line orbital elements,

1 28538U 05004B   17018.79737930 0.00000020  00000-0  32581-4 0    05
2 28538  63.8218 313.1761 0154000 187.2167 172.7833 13.43093031    08
Epoch (UTC): 18 January 2017 19:08:13
Eccentricity: 0.0154000
inclination: 63.8218°
perigee height: 982 km
apogee height: 1213 km
right ascension of ascending node: 313.1761°
argument of perigee: 187.2167°
revolutions per day: 13.43093031
mean anomaly at epoch: 172.7833°
orbit number at epoch: 0

The dashed part of the orbit path shows where the satellite is in the earth's shadow,  

DLR